OPS 7218 (TRANSIT 16) 1 02807U 67048A 25291.26722650 .00000162 00000+0 23675-3 0 9995 2 02807 89.6801 355.8393 0018182 276.4401 152.4347 13.50705233875275 OPS 4947 (TRANSIT 17) 1 02965U 67092A 25291.28868483 .00000143 00000+0 19380-3 0 9993 2 02965 89.2533 28.6475 0048552 39.1476 14.2088 13.53434601863471 OPS 7034 (TRANSIT 18) 1 03133U 68012A 25291.27074957 .00000192 00000+0 27719-3 0 9997 2 03133 90.0205 273.5036 0073055 332.7855 158.8087 13.51547833561691 NNSS 19 (TRANSIT 19) 1 04507U 70067A 25291.31357875 .00000225 00000+0 30039-3 0 9990 2 04507 90.0013 234.5026 0174009 93.4680 268.6391 13.51288762714734 NNSS 20 (TRANSIT 20) 1 06909U 73081A 25291.30789914 .00000247 00000+0 24397-3 0 9993 2 06909 89.8490 255.9025 0152663 244.2484 114.2856 13.71404725796017 TRANSAT 1 10457U 77106A 25291.17669720 .00000113 00000+0 16423-3 0 9998 2 10457 89.6428 80.5727 0025302 358.2369 175.6975 13.48931209359943 NOVA 1 1 12458U 81044A 25291.24384324 .00000107 00000+0 23297-3 0 9999 2 12458 89.8468 92.1807 0012479 255.4307 226.0640 13.23269184144526 NOVA 3 1 15362U 84110A 25290.95655130 .00000095 00000+0 20528-3 0 9996 2 15362 90.1169 79.8863 0033146 121.6470 351.6353 13.23035684979617 OSCAR 30 1 15935U 85066A 25291.27199998 .00000152 00000+0 26095-3 0 9993 2 15935 90.1600 98.9527 0166233 239.9520 297.2841 13.36063331957128 OSCAR 24 1 15936U 85066B 25291.17534674 .00000132 00000+0 22492-3 0 9992 2 15936 90.1735 91.3344 0167201 246.7289 289.5437 13.35922048959019 POLAR BEAR 1 17070U 86088A 25291.25500255 .00000141 00000+0 13562-3 0 9993 2 17070 89.6230 185.9801 0037490 289.4079 183.8764 13.75235422952163 OSCAR 27 1 18361U 87080A 25291.34121978 .00000131 00000+0 20209-3 0 9996 2 18361 90.3691 77.2080 0104496 24.2803 336.3218 13.44891161868125 OSCAR 29 1 18362U 87080B 25291.33246751 .00000119 00000+0 18280-3 0 9995 2 18362 90.3702 77.6620 0106754 47.0283 14.4546 13.44435474867653 OSCAR 23 1 19070U 88033A 25291.28727052 .00000088 00000+0 16381-3 0 9998 2 19070 90.3274 14.6539 0188375 335.1802 84.5961 13.27773773815178 OSCAR 32 1 19071U 88033B 25291.27051384 .00000090 00000+0 16827-3 0 9994 2 19071 90.3279 14.7824 0186455 322.0365 94.5933 13.27941368815298 NOVA 2 1 19223U 88052A 25291.32235324 .00000087 00000+0 18664-3 0 9995 2 19223 89.9818 78.3487 0030960 163.2025 257.7530 13.22926772802152 OSCAR 25 1 19419U 88074A 25291.29829510 .00000105 00000+0 16417-3 0 9993 2 19419 90.0399 20.0438 0097249 45.5148 13.7166 13.42608570818963 OSCAR 31 1 19420U 88074B 25291.23778500 .00000100 00000+0 15578-3 0 9993 2 19420 90.0415 20.3843 0095332 39.9728 338.2270 13.42571972819067